Regional Weather Roundup
Issued by NWS

Home | Current Version | Previous Version | Graphics & Text | Print | Product List | Glossary On
Versions: 1 2 3 4 5 6 7 8 9 10 11 12 13 14 15 16 17 18 19 20 21 22 23 24 25 26 27 28 29 30 31 32 33 34 35 36 37 38 39 40 41 42 43 44 45 46 47 48 49 50
000
ASUS45 KTFX 271104
RWRMT
MONTANA HOURLY WEATHER ROUNDUP
NATIONAL WEATHER SERVICE GREAT FALLS MT
504 AM MDT FRI MAR 27 2015

NOTE: "FAIR" INDICATES FEW OR NO CLOUDS BELOW 12000 FEET WITH NO
SIGNIFICANT WEATHER AND/OR OBSTRUCTIONS TO VISIBILITY.

* THESE STATIONS ARE NOT UNDER NWS QUALITY CONTROL. THEY DO NOT
   REPORT WEATHER SUCH AS PRECIPITATION OR FOG.

MTZ001>007-043-271200-
WEST OF THE DIVIDE
CITY           SKY/WX    TMP DP  RH WIND       PRES   REMARKS
KALISPELL      PTCLDY    30  30 100 CALM      30.20F
MISSOULA       FOG       36  34  92 CALM      30.25F VSB 2 1/2
BUTTE          CLEAR     28  27  96 CALM      30.25F
MULLAN PASS    CLEAR     41  37  86 SW7       30.22F
* ESSEX        N/A       32  31  96 N/A        N/A
* LINCOLN      N/A       43  36  76 SE3G8      N/A
* LOOKOUT PASS N/A       36  36 100 S4         N/A
* POLSON       N/A       39  39 100 N/A        N/A
* RONAN APT    CLEAR     36  34  92 N/A        N/A
* SEELEY LAKE  N/A       28  27  96 NE1        N/A
* THOMP F APT  PTCLDY    37  28  70 N6         N/A   WCI  32
* YAAK HILL    N/A       36  34  92 N/A        N/A
$$

MTZ008-052>055-271200-
SOUTHWEST MONTANA
CITY           SKY/WX    TMP DP  RH WIND       PRES   REMARKS
BOZEMAN        PTCLDY    34  30  85 E3        30.21F
DILLON         CLEAR     39  30  70 SW6       30.25F WCI  35
* W YELLOWSTON CLEAR     26  25  96 N/A        N/A
* THREE FORKS  PTCLDY    37  37 100 N/A        N/A
* TWIN BRIDGES CLEAR     36  28  73 N/A        N/A
* BOULDER HILL N/A       47  27  46 E5G11      N/A
* HOMESTAKE PS N/A       39  31  73 W6         N/A   WCI  35
* MONIDA PASS  N/A       31  29  92 SE8        N/A   WCI  24
* RAYNOLDS PAS N/A       30  15  54 S10        N/A   WCI  21
* WHITEHALL    N/A       44  34  68 W4         N/A
* WISE RIVER   N/A       31  29  92 W3         N/A
$$

MTZ009>010-012-014-046-048-049-054-271200-
EAST SLOPES AND CENTRAL MONTANA
CITY           SKY/WX    TMP DP  RH WIND       PRES   REMARKS
CUT BANK       CLOUDY    50  34  54 W22       30.04F
GREAT FALLS    CLOUDY    48  34  59 SW14      30.07S
HELENA         MOCLDY    46  36  68 S3        30.16F
MALMSTROM AFB  MOCLDY    48  34  59 SW10      30.07F
* DEARBORN     N/A       56  34  44 SW6        N/A
* EAST GLACIER N/A       48  33  56 W24G34     N/A
* MONARCH      N/A       44  25  47 SW1G8      N/A
* PENDROY      N/A       52  19  27 NW7G12     N/A
* ROGERS PASS  N/A       44  34  68 SE12G20    N/A
$$

MTZ011-013-016-021-035-040-045-047-050-051-271200-
NORTH CENTRAL MONTANA
CITY           SKY/WX    TMP DP  RH WIND       PRES   REMARKS
HAVRE          MOCLDY    45  37  74 SW15      30.01S
LEWISTOWN      PTCLDY    45  34  65 SW13      30.08F
* N BAR RANCH  CLEAR     52  32  47 W10G18    30.08F
* MALTA APT    CLOUDY    36  28  73 N/A        N/A
* CHESTER      N/A       48  36  63 NW9G14     N/A
* DENTON       N/A       45  32  60 SW9        N/A
* GEYSER       N/A       45  28  51 NW8        N/A
* JUDITH GAP   N/A       43  32  65 W3G10      N/A
* LOMA         N/A       45  35  68 W6         N/A
$$

MTZ017>020-022>027-061-062-271200-
NORTHEAST MONTANA
CITY           SKY/WX    TMP DP  RH WIND       PRES   REMARKS
GLASGOW        MOCLDY    36  30  79 CALM      29.95S
GLENDIVE       MOCLDY    37  32  82 S9        29.97F WCI  30
JORDAN         PTCLDY    41  36  82 W6        29.99S
SIDNEY         CLOUDY    37  32  82 S8        29.95F WCI  31
WOLF POINT     CLOUDY    36  32  85 W3        29.94F
* BEAVER HILL  N/A       39  33  79 S17        N/A   WCI  30
* CIRCLE       N/A       43  35  73 W2         N/A
* LINDSAY DVD  N/A       47  36  66 W16G24     N/A
* NAVAJO       N/A       34  32  92 S6         N/A   WCI  29
* SACO         N/A       35  32  89 NW1        N/A
$$

MTZ028>042-056>058-271200-
SOUTHCENTRAL AND SOUTHEAST MONTANA
CITY           SKY/WX    TMP DP  RH WIND       PRES   REMARKS
BAKER          MOCLDY    34  30  85 SE7       30.00F WCI  28
BILLINGS       MOCLDY    50  34  54 W13       30.10S
LIVINGSTON     PTCLDY    52  34  50 W15       30.18S
MILES CITY     MOCLDY    39  30  70 NW9       30.00S WCI  33
* LAUREL APT   PTCLDY    48  28  46 NW7        N/A
* ROUNDUP APT  PTCLDY    46  32  58 N/A        N/A
* ALZADA       N/A       34  31  89 E3         N/A
* HYSHAM       N/A       52  33  48 W3G12      N/A
* LAME DEER    N/A       49  36  61 NW9G14     N/A
* REED POINT   N/A       54  32  43 W10G15     N/A
* ROSCOE HILL  N/A       53  15  22 SW2G8      N/A
$$

REGIONAL REPORTS...DAKOTAS
CITY           SKY/WX    TMP DP  RH WIND       PRES   REMARKS
WILLISTON      CLOUDY    37  30  76 SE7       29.98F WCI  32
DICKINSON      CLOUDY    34  28  79 S14       30.00F WCI  24
CROSBY         FAIR      34  32  92 S10       29.97F WCI  26
WATFORD CITY   MOCLDY    34  30  85 S3        29.97F
BISMARCK       CLOUDY    27  16  63 SE10      30.17F WCI  18
GRAND FORKS    MOCLDY    12   9  88 S5        30.26F WCI   4
FARGO          CLEAR     10   7  88 CALM      30.28S
BUFFALO SD     CLOUDY    34  30  85 S12       29.97F WCI  25
RAPID CITY     CLOUDY    34  28  79 SE7       30.06F WCI  28
$$

REGIONAL REPORTS...WYOMING/IDAHO/WASHINGTON
CITY           SKY/WX    TMP DP  RH WIND       PRES   REMARKS
GILLETTE       PTCLDY    45  37  74 W15       30.08S
SHERIDAN       PTCLDY    50  34  54 CALM      30.11S
CODY           PTCLDY    54  30  40 W14G23    30.14S
YELLOWSTONE LA CLEAR     23  21  92 CALM      30.37R
SALMON         CLEAR     34  30  85 CALM      30.30S
MULLAN PASS    CLEAR     41  37  86 SW7       30.22S
SAND POINT     FOG       37  37 100 CALM      30.19F VSB M1/4
SPOKANE        FOG       45  45 100 NE7       30.14F VSB 3/4

$$




USA.gov is the U.S. government's official web portal to all federal, state and local government web resources and services.